This is the latest recevied weather packets stored in our database for station/object XE2G-31. If no packets are shown the sender has not sent any weather packets the latest 10 day(s).
| Time | Temp. | Humidity | Pressure | Rain* | Wind** | Luminosity | Snow |
|---|---|---|---|---|---|---|---|
| 1778220723 | 22.22° C | 86% | 872 hPa | - | - | - | - |
| 1778219776 | 22.22° C | 87% | 872 hPa | - | - | - | - |
| 1778218830 | 22.22° C | 86% | 872 hPa | - | - | - | - |
| 1778217883 | 22.22° C | 88% | 872 hPa | - | - | - | - |
| 1778216936 | 22.22° C | 88% | 872 hPa | - | - | - | - |
| 1778215989 | 22.78° C | 76% | 871 hPa | - | - | - | - |
| 1778215042 | 23.33° C | 78% | 872 hPa | - | - | - | - |
| 1778214095 | 23.33° C | 80% | 872 hPa | - | - | - | - |
| 1778213149 | 22.78° C | 84% | 872 hPa | - | - | - | - |
| 1778212202 | 22.22° C | 85% | 872 hPa | - | - | - | - |
| 1778211255 | 22.78° C | 84% | 871 hPa | - | - | - | - |
| 1778210308 | 22.22° C | 84% | 871 hPa | - | - | - | - |
| 1778209361 | 22.78° C | 84% | 871 hPa | - | - | - | - |
| 1778208414 | 22.22° C | 84% | 871 hPa | - | - | - | - |
| 1778207468 | 22.78° C | 82% | 871 hPa | - | - | - | - |
| 1778206521 | 22.78° C | 83% | 871 hPa | - | - | - | - |
| 1778205574 | 23.33° C | 82% | 871 hPa | - | - | - | - |
| 1778204627 | 23.33° C | 81% | 871 hPa | - | - | - | - |
| 1778203680 | 23.33° C | 78% | 871 hPa | - | - | - | - |
| 1778202733 | 23.33° C | 78% | 871 hPa | - | - | - | - |
| 1778201787 | 23.33° C | 77% | 870 hPa | - | - | - | - |
| 1778200840 | 23.33° C | 76% | 870 hPa | - | - | - | - |
| 1778199893 | 23.89° C | 72% | 870 hPa | - | - | - | - |
| 1778198946 | 25° C | 69% | 870 hPa | - | - | - | - |
| 1778197999 | 25.56° C | 68% | 870 hPa | - | - | - | - |
* Rain since midnight (hover to see other rain measurements)
** Current wind speed in m/s (hover to see current wind gust speed)